Wetterdaten: Sonntag, 04.06.2017
Datum Zeit Temp. I. Temp. A. Boden 5 cm Feuchte A. Sonne Luftdruck Regen Wind Sonnenschein
04.06.2017 00:00 22,8 C 20,4 C 21,9 C 68 % 0 % 1012 hPa 0,0 l/m 0,0 km/h (0 Bft) 0 min
04.06.2017 00:03 22,7 C 20,4 C 22,0 C 68 % 0 % 1012 hPa 0,0 l/m 0,0 km/h (0 Bft) 0 min
04.06.2017 00:06 22,8 C 20,3 C 21,8 C 68 % 0 % 1012 hPa 0,0 l/m 0,1 km/h (0 Bft) 0 min
04.06.2017 00:09 22,7 C 20,2 C 21,8 C 68 % 0 % 1012 hPa 0,0 l/m 0,0 km/h (0 Bft) 0 min
04.06.2017 00:12 22,7 C 20,2 C 21,9 C 68 % 0 % 1012 hPa 0,0 l/m 0,0 km/h (0 Bft) 0 min
04.06.2017 00:15 22,7 C 20,2 C 21,6 C 68 % 0 % 1012 hPa 0,0 l/m 0,0 km/h (0 Bft) 0 min
04.06.2017 00:18 22,7 C 20,2 C 21,7 C 68 % 0 % 1012 hPa 0,0 l/m 0,1 km/h (0 Bft) 0 min
04.06.2017 00:21 22,7 C 20,1 C 21,6 C 69 % 0 % 1012 hPa 0,0 l/m 0,3 km/h (0 Bft) 0 min
04.06.2017 00:24 22,7 C 20,1 C 21,7 C 69 % 0 % 1012 hPa 0,0 l/m 0,0 km/h (0 Bft) 0 min
04.06.2017 00:27 22,7 C 20,0 C 21,7 C 69 % 0 % 1012 hPa 0,0 l/m 0,1 km/h (0 Bft) 0 min
04.06.2017 00:30 22,7 C 20,0 C 21,4 C 69 % 0 % 1012 hPa 0,0 l/m 0,0 km/h (0 Bft) 0 min
04.06.2017 00:33 22,7 C 19,9 C 21,5 C 69 % 0 % 1012 hPa 0,0 l/m 0,9 km/h (0 Bft) 0 min
04.06.2017 00:36 22,7 C 19,8 C 21,6 C 69 % 0 % 1012 hPa 0,0 l/m 0,0 km/h (0 Bft) 0 min
04.06.2017 00:39 22,7 C 19,8 C 21,7 C 70 % 0 % 1012 hPa 0,0 l/m 0,0 km/h (0 Bft) 0 min
04.06.2017 00:42 22,7 C 19,8 C 21,7 C 70 % 0 % 1012 hPa 0,0 l/m 0,0 km/h (0 Bft) 0 min
04.06.2017 00:45 22,7 C 19,8 C 21,5 C 71 % 0 % 1011 hPa 0,0 l/m 0,0 km/h (0 Bft) 0 min
04.06.2017 00:48 22,7 C 19,8 C 21,4 C 71 % 0 % 1011 hPa 0,0 l/m 0,4 km/h (0 Bft) 0 min
04.06.2017 00:51 22,7 C 19,7 C 21,1 C 70 % 0 % 1011 hPa 0,0 l/m 0,5 km/h (0 Bft) 0 min
04.06.2017 00:54 22,7 C 19,7 C 20,9 C 70 % 0 % 1011 hPa 0,0 l/m 0,0 km/h (0 Bft) 0 min
04.06.2017 00:57 22,7 C 19,6 C 20,9 C 70 % 0 % 1011 hPa 0,0 l/m 0,0 km/h (0 Bft) 0 min
04.06.2017 01:00 22,7 C 19,6 C 20,9 C 71 % 0 % 1011 hPa 0,0 l/m 0,0 km/h (0 Bft) 0 min
04.06.2017 01:03 22,7 C 19,5 C 21,3 C 71 % 0 % 1011 hPa 0,0 l/m 0,0 km/h (0 Bft) 0 min
04.06.2017 01:06 22,7 C 19,5 C 21,3 C 71 % 0 % 1011 hPa 0,0 l/m 0,0 km/h (0 Bft) 0 min
04.06.2017 01:09 22,7 C 19,5 C 21,3 C 71 % 0 % 1011 hPa 0,0 l/m 0,0 km/h (0 Bft) 0 min
04.06.2017 01:12 22,7 C 19,4 C 21,3 C 71 % 0 % 1011 hPa 0,0 l/m 0,0 km/h (0 Bft) 0 min
04.06.2017 01:15 22,7 C 19,4 C 21,3 C 71 % 0 % 1011 hPa 0,0 l/m 0,0 km/h (0 Bft) 0 min
04.06.2017 01:18 22,7 C 19,4 C 21,3 C 72 % 0 % 1011 hPa 0,0 l/m 0,0 km/h (0 Bft) 0 min
04.06.2017 01:21 22,7 C 19,4 C 21,2 C 72 % 0 % 1011 hPa 0,0 l/m 0,0 km/h (0 Bft) 0 min
04.06.2017 01:24 22,6 C 19,4 C 21,2 C 72 % 0 % 1011 hPa 0,0 l/m 0,0 km/h (0 Bft) 0 min
04.06.2017 01:27 22,6 C 19,4 C 21,1 C 72 % 0 % 1011 hPa 0,0 l/m 0,0 km/h (0 Bft) 0 min
04.06.2017 01:30 22,6 C 19,3 C 20,7 C 72 % 0 % 1011 hPa 0,0 l/m 0,0 km/h (0 Bft) 0 min
04.06.2017 01:33 22,6 C 19,2 C 20,5 C 72 % 0 % 1011 hPa 0,0 l/m 0,0 km/h (0 Bft) 0 min
04.06.2017 01:36 22,6 C 19,1 C 20,5 C 72 % 0 % 1011 hPa 0,0 l/m 3,4 km/h (1 Bft) 0 min
04.06.2017 01:39 22,6 C 19,0 C 20,8 C 73 % 0 % 1011 hPa 0,0 l/m 0,3 km/h (0 Bft) 0 min
04.06.2017 01:42 22,5 C 18,9 C 21,1 C 73 % 0 % 1011 hPa 0,0 l/m 1,6 km/h (1 Bft) 0 min
04.06.2017 01:45 22,6 C 18,8 C 21,1 C 73 % 0 % 1011 hPa 0,0 l/m 0,0 km/h (0 Bft) 0 min
04.06.2017 01:48 22,5 C 18,8 C 20,7 C 73 % 0 % 1011 hPa 0,0 l/m 0,0 km/h (0 Bft) 0 min
04.06.2017 01:51 22,5 C 18,8 C 21,0 C 73 % 0 % 1011 hPa 0,0 l/m 0,0 km/h (0 Bft) 0 min
04.06.2017 01:54 22,5 C 18,8 C 20,9 C 73 % 0 % 1011 hPa 0,0 l/m 0,0 km/h (0 Bft) 0 min
04.06.2017 01:57 22,5 C 18,8 C 20,8 C 73 % 0 % 1011 hPa 0,0 l/m 0,0 km/h (0 Bft) 0 min
04.06.2017 02:00 22,5 C 18,8 C 20,6 C 73 % 0 % 1011 hPa 0,0 l/m 0,3 km/h (0 Bft) 0 min
04.06.2017 02:03 22,5 C 18,8 C 20,6 C 73 % 0 % 1011 hPa 0,0 l/m 0,2 km/h (0 Bft) 0 min
04.06.2017 02:06 22,5 C 18,8 C 20,6 C 73 % 0 % 1011 hPa 0,0 l/m 0,0 km/h (0 Bft) 0 min
04.06.2017 02:09 22,5 C 18,8 C 20,7 C 73 % 0 % 1011 hPa 0,0 l/m 0,0 km/h (0 Bft) 0 min
04.06.2017 02:12 22,5 C 18,8 C 20,8 C 73 % 0 % 1011 hPa 0,0 l/m 0,0 km/h (0 Bft) 0 min
04.06.2017 02:15 22,5 C 18,8 C 20,8 C 73 % 0 % 1011 hPa 0,0 l/m 0,1 km/h (0 Bft) 0 min
04.06.2017 02:18 22,5 C 18,8 C 20,8 C 73 % 0 % 1011 hPa 0,0 l/m 0,0 km/h (0 Bft) 0 min
04.06.2017 02:21 22,5 C 18,8 C 20,8 C 73 % 0 % 1011 hPa 0,0 l/m 0,3 km/h (0 Bft) 0 min
04.06.2017 02:24 22,5 C 18,8 C 20,7 C 73 % 0 % 1011 hPa 0,0 l/m 0,0 km/h (0 Bft) 0 min
04.06.2017 02:27 22,5 C 18,9 C 20,8 C 73 % 0 % 1011 hPa 0,0 l/m 0,1 km/h (0 Bft) 0 min
04.06.2017 02:30 22,5 C 18,9 C 20,7 C 73 % 0 % 1011 hPa 0,0 l/m 0,0 km/h (0 Bft) 0 min
04.06.2017 02:33 22,5 C 18,9 C 20,6 C 73 % 0 % 1011 hPa 0,0 l/m 0,0 km/h (0 Bft) 0 min
04.06.2017 02:36 22,5 C 18,9 C 20,7 C 73 % 0 % 1011 hPa 0,0 l/m 0,0 km/h (0 Bft) 0 min
04.06.2017 02:39 22,5 C 18,9 C 20,7 C 73 % 0 % 1011 hPa 0,0 l/m 0,0 km/h (0 Bft) 0 min
04.06.2017 02:42 22,5 C 19,0 C 20,7 C 73 % 0 % 1011 hPa 0,0 l/m 0,0 km/h (0 Bft) 0 min
04.06.2017 02:45 22,5 C 18,9 C 20,7 C 73 % 0 % 1011 hPa 0,0 l/m 0,0 km/h (0 Bft) 0 min
04.06.2017 02:48 22,5 C 19,0 C 20,7 C 73 % 0 % 1011 hPa 0,0 l/m 0,3 km/h (0 Bft) 0 min
04.06.2017 02:51 22,5 C 18,9 C 20,5 C 73 % 0 % 1011 hPa 0,0 l/m 0,3 km/h (0 Bft) 0 min
04.06.2017 02:54 22,5 C 18,9 C 20,3 C 73 % 0 % 1011 hPa 0,0 l/m 0,0 km/h (0 Bft) 0 min
04.06.2017 02:57 22,5 C 18,9 C 20,3 C 73 % 0 % 1010 hPa 0,0 l/m 0,0 km/h (0 Bft) 0 min
04.06.2017 03:00 22,5 C 18,8 C 20,2 C 73 % 0 % 1010 hPa 0,0 l/m 0,0 km/h (0 Bft) 0 min
04.06.2017 03:03 22,5 C 18,8 C 20,3 C 73 % 0 % 1010 hPa 0,0 l/m 0,0 km/h (0 Bft) 0 min
04.06.2017 03:06 22,5 C 18,8 C 20,3 C 73 % 0 % 1010 hPa 0,0 l/m 0,0 km/h (0 Bft) 0 min
04.06.2017 03:09 22,4 C 18,6 C 20,1 C 73 % 0 % 1010 hPa 0,0 l/m 2,3 km/h (1 Bft) 0 min
04.06.2017 03:12 22,4 C 18,6 C 20,0 C 73 % 0 % 1011 hPa 0,0 l/m 3,3 km/h (1 Bft) 0 min
04.06.2017 03:15 22,4 C 18,4 C 20,0 C 74 % 0 % 1011 hPa 0,0 l/m 3,9 km/h (1 Bft) 0 min
04.06.2017 03:18 22,4 C 18,4 C 20,2 C 74 % 0 % 1011 hPa 0,0 l/m 0,3 km/h (0 Bft) 0 min
04.06.2017 03:21 22,4 C 18,4 C 20,4 C 74 % 0 % 1011 hPa 0,0 l/m 0,0 km/h (0 Bft) 0 min
04.06.2017 03:24 22,4 C 18,4 C 20,3 C 73 % 0 % 1011 hPa 0,0 l/m 0,0 km/h (0 Bft) 0 min
04.06.2017 03:27 22,4 C 18,4 C 20,2 C 73 % 0 % 1011 hPa 0,0 l/m 3,6 km/h (1 Bft) 0 min
04.06.2017 03:30 22,4 C 18,6 C 20,4 C 73 % 0 % 1011 hPa 0,0 l/m 3,8 km/h (1 Bft) 0 min
04.06.2017 03:33 22,4 C 18,7 C 20,5 C 73 % 0 % 1011 hPa 0,0 l/m 0,0 km/h (0 Bft) 0 min
04.06.2017 03:36 22,4 C 18,7 C 20,3 C 73 % 0 % 1011 hPa 0,0 l/m 0,0 km/h (0 Bft) 0 min
04.06.2017 03:39 22,4 C 18,9 C 20,4 C 73 % 0 % 1011 hPa 0,0 l/m 0,4 km/h (0 Bft) 0 min
04.06.2017 03:42 22,4 C 18,9 C 20,3 C 73 % 0 % 1011 hPa 0,0 l/m 3,5 km/h (1 Bft) 0 min
04.06.2017 03:45 22,4 C 18,8 C 20,3 C 73 % 0 % 1011 hPa 0,0 l/m 0,3 km/h (0 Bft) 0 min
04.06.2017 03:48 22,4 C 18,8 C 20,1 C 73 % 0 % 1011 hPa 0,0 l/m 3,4 km/h (1 Bft) 0 min
04.06.2017 03:51 22,4 C 18,8 C 20,3 C 73 % 0 % 1011 hPa 0,0 l/m 2,2 km/h (1 Bft) 0 min
04.06.2017 03:54 22,4 C 18,8 C 20,2 C 74 % 0 % 1011 hPa 0,0 l/m 0,3 km/h (0 Bft) 0 min
04.06.2017 03:57 22,4 C 18,8 C 20,3 C 74 % 0 % 1011 hPa 0,0 l/m 0,3 km/h (0 Bft) 0 min
04.06.2017 04:00 22,4 C 18,8 C 20,4 C 74 % 0 % 1011 hPa 0,0 l/m 3,0 km/h (1 Bft) 0 min
04.06.2017 04:03 22,4 C 18,8 C 20,4 C 74 % 0 % 1011 hPa 0,0 l/m 3,0 km/h (1 Bft) 0 min
04.06.2017 04:06 22,4 C 18,8 C 20,5 C 74 % 0 % 1011 hPa 0,0 l/m 1,4 km/h (1 Bft) 0 min
04.06.2017 04:09 22,4 C 18,8 C 20,3 C 74 % 0 % 1011 hPa 0,0 l/m 0,3 km/h (0 Bft) 0 min
04.06.2017 04:12 22,4 C 18,8 C 20,4 C 74 % 0 % 1011 hPa 0,0 l/m 0,3 km/h (0 Bft) 0 min
04.06.2017 04:15 22,4 C 18,8 C 20,2 C 74 % 0 % 1011 hPa 0,0 l/m 7,2 km/h (2 Bft) 0 min
04.06.2017 04:18 22,4 C 18,8 C 20,3 C 74 % 0 % 1011 hPa 0,0 l/m 6,5 km/h (2 Bft) 0 min
04.06.2017 04:21 22,4 C 18,8 C 20,3 C 75 % 0 % 1011 hPa 0,0 l/m 6,1 km/h (2 Bft) 0 min
04.06.2017 04:24 22,4 C 18,8 C 20,3 C 75 % 0 % 1011 hPa 0,0 l/m 4,7 km/h (1 Bft) 0 min
04.06.2017 04:27 22,4 C 18,8 C 20,3 C 75 % 0 % 1011 hPa 0,0 l/m 1,2 km/h (1 Bft) 0 min
04.06.2017 04:30 22,4 C 18,8 C 20,3 C 75 % 0 % 1011 hPa 0,0 l/m 4,5 km/h (1 Bft) 0 min
04.06.2017 04:33 22,4 C 18,8 C 20,4 C 74 % 0 % 1011 hPa 0,0 l/m 13,3 km/h (3 Bft) 0 min
04.06.2017 04:36 22,4 C 19,0 C 20,5 C 73 % 0 % 1011 hPa 0,0 l/m 7,2 km/h (2 Bft) 0 min
04.06.2017 04:39 22,4 C 19,2 C 20,5 C 73 % 0 % 1011 hPa 0,0 l/m 9,4 km/h (2 Bft) 0 min
04.06.2017 04:42 22,4 C 19,2 C 20,5 C 73 % 0 % 1011 hPa 0,0 l/m 5,8 km/h (2 Bft) 0 min
04.06.2017 04:45 22,5 C 19,2 C 20,5 C 73 % 0 % 1011 hPa 0,0 l/m 9,0 km/h (2 Bft) 0 min
04.06.2017 04:48 22,5 C 19,2 C 20,4 C 73 % 0 % 1012 hPa 0,0 l/m 13,0 km/h (3 Bft) 0 min
04.06.2017 04:51 22,5 C 19,2 C 20,4 C 73 % 0 % 1011 hPa 0,0 l/m 7,1 km/h (2 Bft) 0 min
04.06.2017 04:54 22,6 C 19,1 C 20,3 C 73 % 0 % 1011 hPa 0,0 l/m 11,0 km/h (2 Bft) 0 min
04.06.2017 04:57 22,6 C 19,1 C 20,3 C 73 % 0 % 1011 hPa 0,0 l/m 7,5 km/h (2 Bft) 0 min
04.06.2017 05:00 22,6 C 19,1 C 20,3 C 73 % 0 % 1012 hPa 0,0 l/m 3,1 km/h (1 Bft) 0 min
04.06.2017 05:03 22,6 C 19,0 C 20,3 C 73 % 0 % 1012 hPa 0,0 l/m 3,1 km/h (1 Bft) 0 min
04.06.2017 05:06 22,6 C 19,0 C 20,2 C 74 % 0 % 1012 hPa 0,0 l/m 3,6 km/h (1 Bft) 0 min
04.06.2017 05:09 22,6 C 19,0 C 20,3 C 74 % 0 % 1012 hPa 0,0 l/m 4,0 km/h (1 Bft) 0 min
04.06.2017 05:12 22,6 C 19,0 C 20,3 C 74 % 0 % 1012 hPa 0,0 l/m 3,2 km/h (1 Bft) 0 min
04.06.2017 05:15 22,6 C 18,9 C 20,2 C 74 % 0 % 1012 hPa 0,0 l/m 3,3 km/h (1 Bft) 0 min
04.06.2017 05:18 22,6 C 18,8 C 20,1 C 74 % 0 % 1012 hPa 0,0 l/m 3,1 km/h (1 Bft) 0 min
04.06.2017 05:21 22,6 C 18,7 C 20,1 C 74 % 0 % 1012 hPa 0,0 l/m 5,5 km/h (1 Bft) 0 min
04.06.2017 05:24 22,6 C 18,7 C 20,1 C 75 % 0 % 1012 hPa 0,0 l/m 5,5 km/h (1 Bft) 0 min
04.06.2017 05:27 22,6 C 18,6 C 20,1 C 75 % 0 % 1012 hPa 0,0 l/m 8,6 km/h (2 Bft) 0 min
04.06.2017 05:30 22,6 C 18,5 C 20,0 C 75 % 0 % 1012 hPa 0,0 l/m 6,8 km/h (2 Bft) 0 min
04.06.2017 05:33 22,6 C 18,5 C 20,1 C 75 % 0 % 1012 hPa 0,0 l/m 6,7 km/h (2 Bft) 0 min
04.06.2017 05:36 22,6 C 18,5 C 20,2 C 75 % 0 % 1012 hPa 0,0 l/m 5,4 km/h (1 Bft) 0 min
04.06.2017 05:39 22,6 C 18,5 C 20,2 C 75 % 0 % 1012 hPa 0,0 l/m 9,1 km/h (2 Bft) 0 min
04.06.2017 05:42 22,7 C 18,5 C 20,1 C 75 % 0 % 1012 hPa 0,0 l/m 7,2 km/h (2 Bft) 0 min
04.06.2017 05:45 22,7 C 18,5 C 20,1 C 75 % 0 % 1012 hPa 0,0 l/m 6,5 km/h (2 Bft) 0 min
04.06.2017 05:48 22,7 C 18,4 C 20,0 C 75 % 0 % 1012 hPa 0,0 l/m 7,2 km/h (2 Bft) 0 min
04.06.2017 05:51 22,7 C 18,5 C 20,1 C 75 % 0 % 1012 hPa 0,0 l/m 11,3 km/h (2 Bft) 0 min
04.06.2017 05:54 22,7 C 18,5 C 20,1 C 75 % 0 % 1012 hPa 0,0 l/m 8,7 km/h (2 Bft) 0 min
04.06.2017 05:57 22,7 C 18,5 C 20,1 C 75 % 0 % 1012 hPa 0,0 l/m 10,9 km/h (2 Bft) 0 min
04.06.2017 06:00 22,7 C 18,7 C 20,1 C 75 % 0 % 1012 hPa 0,0 l/m 3,8 km/h (1 Bft) 0 min
04.06.2017 06:03 22,7 C 18,7 C 20,2 C 75 % 0 % 1012 hPa 0,0 l/m 3,6 km/h (1 Bft) 0 min
04.06.2017 06:06 22,7 C 18,7 C 20,2 C 75 % 0 % 1012 hPa 0,0 l/m 6,3 km/h (2 Bft) 0 min
04.06.2017 06:09 22,7 C 18,7 C 20,1 C 75 % 0 % 1012 hPa 0,0 l/m 6,3 km/h (2 Bft) 0 min
04.06.2017 06:12 22,7 C 18,8 C 20,2 C 75 % 0 % 1012 hPa 0,0 l/m 3,6 km/h (1 Bft) 0 min
04.06.2017 06:15 22,7 C 18,8 C 20,2 C 75 % 0 % 1012 hPa 0,0 l/m 3,6 km/h (1 Bft) 0 min
04.06.2017 06:18 22,7 C 18,8 C 20,2 C 75 % 0 % 1012 hPa 0,0 l/m 4,1 km/h (1 Bft) 0 min
04.06.2017 06:21 22,7 C 18,8 C 20,2 C 75 % 0 % 1012 hPa 0,0 l/m 3,0 km/h (1 Bft) 0 min
04.06.2017 06:24 22,7 C 18,8 C 20,2 C 75 % 0 % 1012 hPa 0,0 l/m 0,3 km/h (0 Bft) 0 min
04.06.2017 06:27 22,7 C 18,9 C 20,2 C 75 % 0 % 1012 hPa 0,0 l/m 2,8 km/h (1 Bft) 0 min
04.06.2017 06:30 22,7 C 18,9 C 20,2 C 75 % 0 % 1012 hPa 0,0 l/m 2,8 km/h (1 Bft) 0 min
04.06.2017 06:33 22,7 C 18,8 C 20,2 C 75 % 0 % 1012 hPa 0,0 l/m 6,2 km/h (2 Bft) 0 min
04.06.2017 06:36 22,7 C 18,8 C 20,1 C 75 % 0 % 1012 hPa 0,0 l/m 6,4 km/h (2 Bft) 0 min
04.06.2017 06:39 22,7 C 18,8 C 20,1 C 75 % 0 % 1012 hPa 0,0 l/m 6,3 km/h (2 Bft) 0 min
04.06.2017 06:42 22,7 C 18,8 C 20,1 C 75 % 0 % 1012 hPa 0,0 l/m 5,4 km/h (1 Bft) 0 min
04.06.2017 06:45 22,7 C 18,8 C 20,2 C 75 % 0 % 1012 hPa 0,0 l/m 0,3 km/h (0 Bft) 0 min
04.06.2017 06:48 22,7 C 18,8 C 20,2 C 75 % 0 % 1013 hPa 0,0 l/m 0,0 km/h (0 Bft) 0 min
04.06.2017 06:51 22,7 C 18,8 C 20,2 C 76 % 0 % 1013 hPa 0,0 l/m 0,4 km/h (0 Bft) 0 min
04.06.2017 06:54 22,7 C 18,8 C 20,1 C 76 % 0 % 1013 hPa 0,0 l/m 0,4 km/h (0 Bft) 0 min
04.06.2017 06:57 22,8 C 18,8 C 20,2 C 76 % 0 % 1013 hPa 0,0 l/m 7,2 km/h (2 Bft) 0 min
04.06.2017 07:00 22,7 C 18,8 C 20,2 C 75 % 0 % 1013 hPa 0,0 l/m 3,9 km/h (1 Bft) 0 min
04.06.2017 07:03 22,7 C 18,8 C 20,2 C 75 % 0 % 1013 hPa 0,0 l/m 3,9 km/h (1 Bft) 0 min
04.06.2017 07:06 22,8 C 18,8 C 20,1 C 74 % 0 % 1013 hPa 0,0 l/m 6,8 km/h (2 Bft) 0 min
04.06.2017 07:09 22,8 C 18,8 C 20,2 C 74 % 0 % 1013 hPa 0,0 l/m 6,8 km/h (2 Bft) 0 min
04.06.2017 07:12 22,7 C 18,8 C 20,1 C 74 % 0 % 1013 hPa 0,0 l/m 12,7 km/h (3 Bft) 0 min
04.06.2017 07:15 22,8 C 18,8 C 20,1 C 74 % 0 % 1013 hPa 0,0 l/m 8,6 km/h (2 Bft) 0 min
04.06.2017 07:18 22,8 C 18,8 C 20,1 C 74 % 0 % 1013 hPa 0,0 l/m 12,8 km/h (3 Bft) 0 min
04.06.2017 07:21 22,8 C 18,8 C 20,1 C 74 % 0 % 1013 hPa 0,0 l/m 7,9 km/h (2 Bft) 0 min
04.06.2017 07:24 22,8 C 18,8 C 20,2 C 74 % 0 % 1013 hPa 0,0 l/m 7,1 km/h (2 Bft) 0 min
04.06.2017 07:27 22,8 C 18,9 C 20,3 C 75 % 0 % 1013 hPa 0,0 l/m 6,1 km/h (2 Bft) 0 min
04.06.2017 07:30 22,8 C 18,9 C 20,3 C 75 % 0 % 1013 hPa 0,0 l/m 5,2 km/h (1 Bft) 0 min
04.06.2017 07:33 22,8 C 18,9 C 20,2 C 74 % 0 % 1013 hPa 0,0 l/m 10,8 km/h (2 Bft) 0 min
04.06.2017 07:36 22,7 C 18,8 C 20,1 C 74 % 0 % 1013 hPa 0,0 l/m 12,7 km/h (3 Bft) 0 min
04.06.2017 07:39 22,7 C 18,8 C 20,1 C 75 % 0 % 1013 hPa 0,0 l/m 12,7 km/h (3 Bft) 0 min
04.06.2017 07:42 22,8 C 18,8 C 20,2 C 75 % 0 % 1013 hPa 0,0 l/m 7,2 km/h (2 Bft) 0 min
04.06.2017 07:45 22,8 C 18,9 C 20,3 C 75 % 0 % 1013 hPa 0,0 l/m 9,8 km/h (2 Bft) 0 min
04.06.2017 07:48 22,8 C 18,8 C 20,2 C 75 % 0 % 1013 hPa 0,0 l/m 11,8 km/h (2 Bft) 0 min
04.06.2017 07:51 22,8 C 18,8 C 20,2 C 75 % 0 % 1013 hPa 0,0 l/m 18,1 km/h (3 Bft) 0 min
04.06.2017 07:54 22,8 C 18,8 C 20,2 C 75 % 0 % 1013 hPa 0,0 l/m 16,1 km/h (3 Bft) 0 min
04.06.2017 07:57 22,8 C 18,9 C 20,3 C 75 % 0 % 1013 hPa 0,0 l/m 14,3 km/h (3 Bft) 0 min
04.06.2017 08:00 22,8 C 18,9 C 20,3 C 75 % 0 % 1013 hPa 0,0 l/m 17,1 km/h (3 Bft) 0 min
04.06.2017 08:03 22,8 C 19,0 C 20,3 C 75 % 0 % 1013 hPa 0,0 l/m 13,6 km/h (3 Bft) 0 min
04.06.2017 08:06 22,8 C 19,0 C 20,3 C 75 % 0 % 1013 hPa 0,0 l/m 11,6 km/h (2 Bft) 0 min
04.06.2017 08:09 22,8 C 19,0 C 20,2 C 75 % 0 % 1013 hPa 0,0 l/m 11,6 km/h (2 Bft) 0 min
04.06.2017 08:12 22,8 C 19,0 C 20,2 C 75 % 0 % 1013 hPa 0,0 l/m 10,5 km/h (2 Bft) 0 min
04.06.2017 08:15 22,8 C 18,9 C 20,2 C 75 % 0 % 1013 hPa 0,0 l/m 14,5 km/h (3 Bft) 0 min
04.06.2017 08:18 22,8 C 18,9 C 20,3 C 75 % 0 % 1013 hPa 0,0 l/m 9,6 km/h (2 Bft) 0 min
04.06.2017 08:21 22,7 C 19,0 C 20,2 C 75 % 0 % 1014 hPa 0,0 l/m 17,2 km/h (3 Bft) 0 min
04.06.2017 08:24 22,5 C 18,9 C 20,2 C 75 % 0 % 1014 hPa 0,0 l/m 19,3 km/h (3 Bft) 0 min
04.06.2017 08:27 22,3 C 18,9 C 20,3 C 75 % 0 % 1014 hPa 0,0 l/m 19,0 km/h (3 Bft) 0 min
04.06.2017 08:30 22,3 C 18,9 C 20,2 C 75 % 0 % 1014 hPa 0,0 l/m 14,7 km/h (3 Bft) 0 min
04.06.2017 08:33 22,4 C 18,9 C 20,2 C 75 % 0 % 1014 hPa 0,0 l/m 13,9 km/h (3 Bft) 0 min
04.06.2017 08:36 22,4 C 18,9 C 20,2 C 75 % 0 % 1014 hPa 0,0 l/m 14,1 km/h (3 Bft) 0 min
04.06.2017 08:39 22,5 C 18,9 C 20,2 C 75 % 0 % 1014 hPa 0,0 l/m 14,9 km/h (3 Bft) 0 min
04.06.2017 08:42 22,6 C 19,0 C 20,3 C 75 % 0 % 1014 hPa 0,0 l/m 8,9 km/h (2 Bft) 0 min
04.06.2017 08:45 22,6 C 19,0 C 20,3 C 75 % 0 % 1014 hPa 0,0 l/m 8,3 km/h (2 Bft) 0 min
04.06.2017 08:48 22,6 C 19,0 C 20,3 C 75 % 0 % 1014 hPa 0,0 l/m 8,3 km/h (2 Bft) 0 min
04.06.2017 08:51 22,6 C 19,0 C 20,3 C 75 % 0 % 1014 hPa 0,0 l/m 11,9 km/h (2 Bft) 0 min
04.06.2017 08:54 22,6 C 18,9 C 20,3 C 74 % 0 % 1014 hPa 0,0 l/m 13,2 km/h (3 Bft) 0 min
04.06.2017 08:57 22,7 C 18,9 C 20,3 C 74 % 0 % 1014 hPa 0,0 l/m 10,1 km/h (2 Bft) 0 min
04.06.2017 09:00 22,7 C 19,0 C 20,3 C 74 % 0 % 1014 hPa 0,0 l/m 8,4 km/h (2 Bft) 0 min
04.06.2017 09:03 22,6 C 19,0 C 20,3 C 74 % 0 % 1014 hPa 0,0 l/m 3,8 km/h (1 Bft) 0 min
04.06.2017 09:06 22,7 C 19,0 C 20,3 C 74 % 0 % 1014 hPa 0,0 l/m 3,8 km/h (1 Bft) 0 min
04.06.2017 09:09 22,7 C 19,1 C 20,3 C 74 % 0 % 1014 hPa 0,0 l/m 11,6 km/h (2 Bft) 0 min
04.06.2017 09:12 22,7 C 19,1 C 20,4 C 74 % 0 % 1014 hPa 0,0 l/m 5,9 km/h (2 Bft) 0 min
04.06.2017 09:15 22,7 C 19,2 C 20,4 C 74 % 0 % 1014 hPa 0,0 l/m 3,8 km/h (1 Bft) 0 min
04.06.2017 09:18 22,7 C 19,1 C 20,4 C 74 % 0 % 1014 hPa 0,0 l/m 3,8 km/h (1 Bft) 0 min
04.06.2017 09:21 22,7 C 19,1 C 20,3 C 74 % 0 % 1014 hPa 0,0 l/m 1,4 km/h (1 Bft) 0 min
04.06.2017 09:24 22,7 C 19,1 C 20,3 C 74 % 0 % 1014 hPa 0,0 l/m 5,9 km/h (2 Bft) 0 min
04.06.2017 09:27 22,7 C 19,1 C 20,3 C 74 % 0 % 1014 hPa 0,0 l/m 9,7 km/h (2 Bft) 0 min
04.06.2017 09:30 22,7 C 19,1 C 20,4 C 74 % 0 % 1014 hPa 0,0 l/m 9,2 km/h (2 Bft) 0 min
04.06.2017 09:33 22,7 C 19,1 C 20,4 C 74 % 0 % 1014 hPa 0,0 l/m 9,4 km/h (2 Bft) 0 min
04.06.2017 09:36 22,7 C 19,2 C 20,4 C 74 % 0 % 1014 hPa 0,0 l/m 11,9 km/h (2 Bft) 0 min
04.06.2017 09:39 22,7 C 19,2 C 20,5 C 74 % 0 % 1014 hPa 0,0 l/m 7,2 km/h (2 Bft) 0 min
04.06.2017 09:42 22,8 C 19,2 C 20,5 C 73 % 0 % 1014 hPa 0,0 l/m 11,5 km/h (2 Bft) 0 min
04.06.2017 09:45 22,7 C 19,2 C 20,4 C 73 % 0 % 1014 hPa 0,0 l/m 7,9 km/h (2 Bft) 0 min
04.06.2017 09:48 22,7 C 19,2 C 20,4 C 73 % 0 % 1014 hPa 0,0 l/m 12,6 km/h (3 Bft) 0 min
04.06.2017 09:51 22,7 C 19,3 C 20,5 C 74 % 0 % 1014 hPa 0,0 l/m 13,6 km/h (3 Bft) 0 min
04.06.2017 09:54 22,7 C 19,4 C 20,5 C 73 % 0 % 1014 hPa 0,0 l/m 9,5 km/h (2 Bft) 0 min
04.06.2017 09:57 22,8 C 19,4 C 20,5 C 72 % 0 % 1014 hPa 0,0 l/m 13,0 km/h (3 Bft) 0 min
04.06.2017 10:00 22,8 C 19,4 C 20,5 C 71 % 0 % 1014 hPa 0,0 l/m 9,1 km/h (2 Bft) 0 min
04.06.2017 10:03 22,8 C 19,4 C 20,4 C 72 % 0 % 1014 hPa 0,0 l/m 14,6 km/h (3 Bft) 0 min
04.06.2017 10:06 22,8 C 19,3 C 20,5 C 71 % 0 % 1014 hPa 0,0 l/m 14,6 km/h (3 Bft) 0 min
04.06.2017 10:09 22,9 C 19,3 C 20,5 C 70 % 0 % 1014 hPa 0,0 l/m 14,6 km/h (3 Bft) 0 min
04.06.2017 10:12 22,9 C 19,4 C 20,5 C 70 % 0 % 1014 hPa 0,0 l/m 20,8 km/h (4 Bft) 0 min
04.06.2017 10:15 23,0 C 19,4 C 20,5 C 69 % 0 % 1014 hPa 0,0 l/m 29,2 km/h (5 Bft) 0 min
04.06.2017 10:18 23,0 C 19,3 C 20,5 C 68 % 0 % 1014 hPa 0,0 l/m 22,7 km/h (4 Bft) 0 min
04.06.2017 10:21 23,0 C 19,3 C 20,5 C 68 % 0 % 1014 hPa 0,0 l/m 20,4 km/h (4 Bft) 0 min
04.06.2017 10:24 23,0 C 19,3 C 20,4 C 68 % 0 % 1014 hPa 0,0 l/m 21,6 km/h (4 Bft) 0 min
04.06.2017 10:27 23,0 C 19,3 C 20,5 C 68 % 0 % 1014 hPa 0,0 l/m 16,4 km/h (3 Bft) 0 min
04.06.2017 10:30 23,0 C 19,4 C 20,5 C 68 % 0 % 1014 hPa 0,0 l/m 15,7 km/h (3 Bft) 0 min
04.06.2017 10:33 23,0 C 19,4 C 20,5 C 68 % 0 % 1014 hPa 0,0 l/m 18,8 km/h (3 Bft) 0 min
04.06.2017 10:36 23,0 C 19,4 C 20,5 C 67 % 0 % 1014 hPa 0,0 l/m 21,3 km/h (4 Bft) 0 min
04.06.2017 10:39 23,0 C 19,4 C 20,5 C 67 % 0 % 1014 hPa 0,0 l/m 16,8 km/h (3 Bft) 0 min
04.06.2017 10:42 23,0 C 19,4 C 20,5 C 68 % 0 % 1014 hPa 0,0 l/m 15,0 km/h (3 Bft) 0 min
04.06.2017 10:45 23,1 C 19,4 C 20,4 C 68 % 0 % 1015 hPa 0,0 l/m 23,3 km/h (4 Bft) 0 min
04.06.2017 10:48 23,1 C 19,2 C 20,4 C 68 % 0 % 1015 hPa 0,0 l/m 23,0 km/h (4 Bft) 0 min
04.06.2017 10:51 23,1 C 19,2 C 20,3 C 68 % 0 % 1015 hPa 0,0 l/m 23,4 km/h (4 Bft) 0 min
04.06.2017 10:54 23,1 C 19,1 C 20,3 C 69 % 0 % 1015 hPa 0,0 l/m 12,6 km/h (3 Bft) 0 min
04.06.2017 10:57 23,1 C 19,0 C 20,3 C 69 % 0 % 1015 hPa 0,0 l/m 12,1 km/h (2 Bft) 0 min
04.06.2017 11:00 23,1 C 19,0 C 20,3 C 69 % 0 % 1015 hPa 0,0 l/m 20,6 km/h (4 Bft) 0 min
04.06.2017 11:03 23,1 C 18,8 C 20,1 C 69 % 0 % 1015 hPa 0,0 l/m 19,3 km/h (3 Bft) 0 min
04.06.2017 11:06 23,1 C 18,8 C 20,1 C 69 % 0 % 1015 hPa 0,0 l/m 25,5 km/h (4 Bft) 0 min
04.06.2017 11:09 23,2 C 18,8 C 20,2 C 70 % 0 % 1015 hPa 0,0 l/m 12,2 km/h (2 Bft) 0 min
04.06.2017 11:12 23,1 C 18,8 C 20,2 C 70 % 0 % 1015 hPa 0,0 l/m 10,9 km/h (2 Bft) 0 min
04.06.2017 11:15 23,1 C 18,8 C 20,2 C 70 % 0 % 1015 hPa 0,0 l/m 14,5 km/h (3 Bft) 0 min
04.06.2017 11:18 23,1 C 18,8 C 20,2 C 70 % 0 % 1015 hPa 0,0 l/m 10,2 km/h (2 Bft) 0 min
04.06.2017 11:21 23,0 C 18,8 C 20,2 C 70 % 0 % 1015 hPa 0,0 l/m 14,4 km/h (3 Bft) 0 min
04.06.2017 11:24 23,0 C 18,8 C 20,1 C 70 % 0 % 1015 hPa 0,0 l/m 18,0 km/h (3 Bft) 0 min
04.06.2017 11:27 23,0 C 18,8 C 20,1 C 70 % 0 % 1015 hPa 0,0 l/m 20,6 km/h (4 Bft) 0 min
04.06.2017 11:30 23,0 C 18,8 C 20,2 C 70 % 0 % 1015 hPa 0,0 l/m 18,3 km/h (3 Bft) 0 min
04.06.2017 11:33 23,0 C 18,8 C 20,2 C 70 % 0 % 1015 hPa 0,0 l/m 11,6 km/h (2 Bft) 0 min
04.06.2017 11:36 23,0 C 18,8 C 20,2 C 70 % 0 % 1015 hPa 0,0 l/m 21,0 km/h (4 Bft) 0 min
04.06.2017 11:39 23,0 C 18,8 C 20,2 C 69 % 0 % 1015 hPa 0,0 l/m 14,0 km/h (3 Bft) 0 min
04.06.2017 11:42 23,0 C 18,8 C 20,2 C 70 % 0 % 1015 hPa 0,0 l/m 11,6 km/h (2 Bft) 0 min
04.06.2017 11:45 23,0 C 18,8 C 20,1 C 70 % 0 % 1015 hPa 0,0 l/m 18,3 km/h (3 Bft) 0 min
04.06.2017 11:48 23,0 C 18,8 C 20,1 C 70 % 0 % 1015 hPa 0,0 l/m 14,8 km/h (3 Bft) 0 min
04.06.2017 11:51 23,0 C 18,9 C 20,1 C 70 % 0 % 1015 hPa 0,0 l/m 16,6 km/h (3 Bft) 0 min
04.06.2017 11:54 23,0 C 18,9 C 20,2 C 70 % 0 % 1015 hPa 0,0 l/m 13,5 km/h (3 Bft) 0 min
04.06.2017 11:57 23,0 C 18,8 C 20,2 C 70 % 0 % 1015 hPa 0,0 l/m 14,6 km/h (3 Bft) 0 min
04.06.2017 12:00 23,0 C 18,8 C 20,1 C 70 % 0 % 1015 hPa 0,0 l/m 13,1 km/h (3 Bft) 0 min
04.06.2017 12:03 23,0 C 18,8 C 20,1 C 70 % 0 % 1015 hPa 0,0 l/m 23,3 km/h (4 Bft) 0 min
04.06.2017 12:06 23,0 C 18,7 C 20,0 C 70 % 0 % 1015 hPa 0,0 l/m 23,3 km/h (4 Bft) 0 min
04.06.2017 12:09 23,0 C 18,7 C 20,1 C 70 % 0 % 1015 hPa 0,0 l/m 20,6 km/h (4 Bft) 0 min
04.06.2017 12:12 23,0 C 18,7 C 20,2 C 70 % 0 % 1015 hPa 0,0 l/m 15,1 km/h (3 Bft) 0 min
04.06.2017 12:15 23,0 C 18,7 C 20,1 C 70 % 0 % 1015 hPa 0,0 l/m 19,8 km/h (3 Bft) 0 min
04.06.2017 12:18 23,1 C 18,5 C 19,7 C 72 % 0 % 1015 hPa 0,0 l/m 19,1 km/h (3 Bft) 0 min
04.06.2017 12:21 23,1 C 18,3 C 19,8 C 73 % 0 % 1015 hPa 0,0 l/m 17,0 km/h (3 Bft) 0 min
04.06.2017 12:24 23,1 C 18,1 C 19,6 C 74 % 0 % 1016 hPa 0,0 l/m 16,4 km/h (3 Bft) 0 min
04.06.2017 12:27 23,1 C 18,0 C 19,7 C 75 % 0 % 1016 hPa 0,0 l/m 9,9 km/h (2 Bft) 0 min
04.06.2017 12:30 23,1 C 17,9 C 19,8 C 76 % 0 % 1016 hPa 0,0 l/m 9,9 km/h (2 Bft) 0 min
04.06.2017 12:33 23,1 C 17,7 C 19,7 C 77 % 0 % 1016 hPa 0,0 l/m 11,0 km/h (2 Bft) 0 min
04.06.2017 12:36 23,1 C 17,6 C 19,5 C 77 % 0 % 1016 hPa 0,0 l/m 10,4 km/h (2 Bft) 0 min
04.06.2017 12:39 23,0 C 17,5 C 19,6 C 77 % 0 % 1016 hPa 0,0 l/m 10,4 km/h (2 Bft) 0 min
04.06.2017 12:42 23,0 C 17,3 C 19,3 C 78 % 0 % 1016 hPa 0,0 l/m 8,0 km/h (2 Bft) 0 min
04.06.2017 12:45 23,0 C 17,3 C 19,4 C 78 % 0 % 1016 hPa 0,3 l/m 14,4 km/h (3 Bft) 0 min
04.06.2017 12:48 23,0 C 17,3 C 19,5 C 79 % 0 % 1016 hPa 0,0 l/m 8,4 km/h (2 Bft) 0 min
04.06.2017 12:51 23,0 C 17,2 C 19,2 C 80 % 0 % 1016 hPa 1,0 l/m 6,5 km/h (2 Bft) 0 min
04.06.2017 12:54 23,0 C 17,1 C 19,0 C 81 % 0 % 1016 hPa 0,0 l/m 12,9 km/h (3 Bft) 0 min
04.06.2017 12:57 23,0 C 17,1 C 19,1 C 82 % 0 % 1016 hPa 0,0 l/m 10,6 km/h (2 Bft) 0 min
04.06.2017 13:00 23,0 C 17,0 C 19,3 C 82 % 0 % 1016 hPa 0,0 l/m 7,4 km/h (2 Bft) 0 min
04.06.2017 13:03 23,0 C 17,2 C 19,2 C 82 % 0 % 1016 hPa 0,3 l/m 9,2 km/h (2 Bft) 0 min
04.06.2017 13:06 23,0 C 17,2 C 19,1 C 82 % 0 % 1016 hPa 0,0 l/m 13,3 km/h (3 Bft) 0 min
04.06.2017 13:09 23,0 C 17,1 C 19,0 C 82 % 0 % 1016 hPa 0,0 l/m 13,3 km/h (3 Bft) 0 min
04.06.2017 13:12 23,1 C 17,0 C 18,7 C 82 % 0 % 1016 hPa 0,0 l/m 18,5 km/h (3 Bft) 0 min
04.06.2017 13:15 23,1 C 16,8 C 18,6 C 82 % 0 % 1016 hPa 0,3 l/m 23,9 km/h (4 Bft) 0 min
04.06.2017 13:18 23,1 C 16,8 C 18,5 C 83 % 0 % 1016 hPa 0,0 l/m 22,3 km/h (4 Bft) 0 min
04.06.2017 13:21 23,2 C 16,5 C 18,5 C 83 % 0 % 1016 hPa 0,0 l/m 23,1 km/h (4 Bft) 0 min
04.06.2017 13:24 23,1 C 16,3 C 18,7 C 82 % 0 % 1016 hPa 0,0 l/m 14,7 km/h (3 Bft) 0 min
04.06.2017 13:27 23,2 C 16,4 C 18,5 C 83 % 0 % 1016 hPa 0,0 l/m 14,3 km/h (3 Bft) 0 min
04.06.2017 13:30 23,2 C 16,4 C 18,8 C 83 % 0 % 1016 hPa 0,0 l/m 12,3 km/h (3 Bft) 0 min
04.06.2017 13:33 23,1 C 16,5 C 19,0 C 83 % 0 % 1016 hPa 0,0 l/m 13,9 km/h (3 Bft) 0 min
04.06.2017 13:36 23,1 C 16,6 C 19,0 C 84 % 0 % 1016 hPa 0,0 l/m 15,1 km/h (3 Bft) 0 min
04.06.2017 13:39 23,2 C 16,5 C 18,7 C 83 % 0 % 1016 hPa 0,0 l/m 17,9 km/h (3 Bft) 0 min
04.06.2017 13:42 23,1 C 16,4 C 18,6 C 82 % 0 % 1016 hPa 0,0 l/m 18,6 km/h (3 Bft) 0 min
04.06.2017 13:45 23,0 C 16,5 C 18,5 C 82 % 0 % 1016 hPa 0,0 l/m 19,8 km/h (3 Bft) 0 min
04.06.2017 13:48 23,0 C 16,6 C 18,8 C 82 % 0 % 1016 hPa 0,0 l/m 16,6 km/h (3 Bft) 0 min
04.06.2017 13:51 23,0 C 16,6 C 18,8 C 81 % 0 % 1016 hPa 0,0 l/m 17,6 km/h (3 Bft) 0 min
04.06.2017 13:54 23,0 C 16,7 C 18,8 C 81 % 0 % 1016 hPa 0,0 l/m 14,8 km/h (3 Bft) 0 min
04.06.2017 13:57 22,9 C 16,7 C 18,9 C 81 % 0 % 1016 hPa 0,0 l/m 16,2 km/h (3 Bft) 0 min
04.06.2017 14:00 23,0 C 16,8 C 19,0 C 81 % 0 % 1017 hPa 0,0 l/m 15,5 km/h (3 Bft) 0 min
04.06.2017 14:03 23,0 C 16,9 C 18,8 C 81 % 0 % 1017 hPa 0,0 l/m 15,5 km/h (3 Bft) 0 min
04.06.2017 14:06 23,0 C 16,8 C 18,8 C 79 % 0 % 1017 hPa 0,0 l/m 27,9 km/h (4 Bft) 0 min
04.06.2017 14:09 23,0 C 16,8 C 18,8 C 80 % 0 % 1017 hPa 0,0 l/m 20,5 km/h (4 Bft) 0 min
04.06.2017 14:12 22,9 C 16,8 C 18,8 C 80 % 0 % 1017 hPa 0,0 l/m 17,0 km/h (3 Bft) 0 min
04.06.2017 14:15 22,9 C 16,8 C 18,9 C 79 % 0 % 1017 hPa 0,0 l/m 18,8 km/h (3 Bft) 0 min
04.06.2017 14:18 22,9 C 16,9 C 18,9 C 79 % 0 % 1017 hPa 0,0 l/m 16,2 km/h (3 Bft) 0 min
04.06.2017 14:21 23,0 C 17,0 C 19,0 C 78 % 0 % 1017 hPa 0,0 l/m 17,1 km/h (3 Bft) 0 min
04.06.2017 14:24 23,0 C 17,0 C 18,9 C 77 % 0 % 1017 hPa 0,0 l/m 19,5 km/h (3 Bft) 0 min
04.06.2017 14:27 22,9 C 17,1 C 18,9 C 78 % 0 % 1017 hPa 0,0 l/m 17,2 km/h (3 Bft) 0 min
04.06.2017 14:30 23,0 C 17,2 C 19,0 C 76 % 0 % 1017 hPa 0,0 l/m 17,2 km/h (3 Bft) 0 min
04.06.2017 14:33 23,0 C 17,3 C 19,0 C 77 % 0 % 1017 hPa 0,0 l/m 9,2 km/h (2 Bft) 0 min
04.06.2017 14:36 23,0 C 17,4 C 19,1 C 78 % 0 % 1017 hPa 0,0 l/m 14,5 km/h (3 Bft) 0 min
04.06.2017 14:39 23,1 C 17,3 C 19,0 C 76 % 0 % 1017 hPa 0,0 l/m 20,4 km/h (4 Bft) 0 min
04.06.2017 14:42 23,1 C 17,4 C 19,0 C 76 % 0 % 1017 hPa 0,0 l/m 20,4 km/h (4 Bft) 0 min
04.06.2017 14:45 23,1 C 17,3 C 18,9 C 75 % 0 % 1017 hPa 0,0 l/m 17,8 km/h (3 Bft) 0 min
04.06.2017 14:48 23,1 C 17,3 C 19,1 C 74 % 0 % 1017 hPa 0,0 l/m 22,8 km/h (4 Bft) 0 min
04.06.2017 14:51 23,0 C 17,2 C 18,9 C 75 % 0 % 1017 hPa 0,0 l/m 22,8 km/h (4 Bft) 0 min
04.06.2017 14:54 23,0 C 17,3 C 19,0 C 75 % 0 % 1017 hPa 0,0 l/m 18,8 km/h (3 Bft) 0 min
04.06.2017 14:57 23,0 C 17,3 C 19,0 C 74 % 0 % 1017 hPa 0,0 l/m 11,4 km/h (2 Bft) 0 min
04.06.2017 15:00 23,0 C 17,2 C 19,0 C 74 % 0 % 1017 hPa 0,0 l/m 10,7 km/h (2 Bft) 0 min
04.06.2017 15:03 23,0 C 17,2 C 18,9 C 74 % 0 % 1017 hPa 0,0 l/m 14,2 km/h (3 Bft) 0 min
04.06.2017 15:06 23,0 C 17,3 C 19,0 C 74 % 0 % 1017 hPa 0,0 l/m 18,5 km/h (3 Bft) 0 min
04.06.2017 15:09 23,0 C 17,4 C 19,0 C 73 % 0 % 1017 hPa 0,0 l/m 19,6 km/h (3 Bft) 0 min
04.06.2017 15:12 23,0 C 17,4 C 19,0 C 73 % 0 % 1017 hPa 0,0 l/m 18,7 km/h (3 Bft) 0 min
04.06.2017 15:15 22,9 C 17,5 C 19,0 C 74 % 0 % 1017 hPa 0,0 l/m 16,0 km/h (3 Bft) 0 min
04.06.2017 15:18 22,9 C 17,6 C 19,1 C 74 % 0 % 1017 hPa 0,0 l/m 18,3 km/h (3 Bft) 0 min
04.06.2017 15:21 22,9 C 17,6 C 19,2 C 73 % 0 % 1017 hPa 0,0 l/m 18,3 km/h (3 Bft) 0 min
04.06.2017 15:24 22,9 C 17,7 C 19,2 C 73 % 0 % 1017 hPa 0,0 l/m 15,6 km/h (3 Bft) 0 min
04.06.2017 15:27 22,8 C 17,7 C 19,1 C 73 % 0 % 1018 hPa 0,0 l/m 14,4 km/h (3 Bft) 0 min
04.06.2017 15:30 22,8 C 17,7 C 19,2 C 74 % 0 % 1018 hPa 0,0 l/m 10,5 km/h (2 Bft) 0 min
04.06.2017 15:33 22,8 C 17,7 C 19,1 C 74 % 0 % 1018 hPa 0,0 l/m 11,2 km/h (2 Bft) 0 min
04.06.2017 15:36 22,8 C 17,6 C 19,2 C 72 % 0 % 1018 hPa 0,0 l/m 18,1 km/h (3 Bft) 0 min
04.06.2017 15:39 22,8 C 17,7 C 19,2 C 73 % 0 % 1018 hPa 0,0 l/m 11,6 km/h (2 Bft) 0 min
04.06.2017 15:42 22,7 C 17,7 C 19,3 C 72 % 0 % 1017 hPa 0,0 l/m 10,8 km/h (2 Bft) 0 min
04.06.2017 15:45 22,7 C 17,7 C 19,5 C 72 % 0 % 1017 hPa 0,0 l/m 8,2 km/h (2 Bft) 0 min
04.06.2017 15:48 22,7 C 18,0 C 19,6 C 72 % 0 % 1017 hPa 0,0 l/m 13,1 km/h (3 Bft) 0 min
04.06.2017 15:51 22,7 C 18,2 C 19,6 C 72 % 0 % 1017 hPa 0,0 l/m 15,0 km/h (3 Bft) 0 min
04.06.2017 15:54 22,7 C 18,4 C 19,6 C 72 % 0 % 1018 hPa 0,0 l/m 15,0 km/h (3 Bft) 0 min
04.06.2017 15:57 22,7 C 18,4 C 19,5 C 71 % 0 % 1018 hPa 0,0 l/m 11,3 km/h (2 Bft) 0 min
04.06.2017 16:00 22,7 C 18,4 C 19,6 C 72 % 0 % 1018 hPa 0,0 l/m 11,6 km/h (2 Bft) 0 min
04.06.2017 16:03 22,7 C 18,4 C 19,6 C 70 % 0 % 1018 hPa 0,0 l/m 11,6 km/h (2 Bft) 0 min
04.06.2017 16:06 22,8 C 18,4 C 19,6 C 69 % 0 % 1017 hPa 0,0 l/m 11,4 km/h (2 Bft) 0 min
04.06.2017 16:09 22,7 C 18,4 C 19,6 C 69 % 0 % 1017 hPa 0,0 l/m 19,5 km/h (3 Bft) 0 min
04.06.2017 16:12 22,6 C 18,4 C 19,6 C 69 % 0 % 1017 hPa 0,0 l/m 16,5 km/h (3 Bft) 0 min
04.06.2017 16:15 22,4 C 18,4 C 19,5 C 69 % 0 % 1017 hPa 0,0 l/m 12,4 km/h (3 Bft) 0 min
04.06.2017 16:18 22,4 C 18,4 C 19,5 C 69 % 0 % 1017 hPa 0,0 l/m 11,5 km/h (2 Bft) 0 min
04.06.2017 16:21 22,3 C 18,3 C 19,5 C 71 % 0 % 1018 hPa 0,0 l/m 18,2 km/h (3 Bft) 0 min
04.06.2017 16:24 22,2 C 18,1 C 19,4 C 69 % 0 % 1018 hPa 0,0 l/m 18,2 km/h (3 Bft) 0 min
04.06.2017 16:27 22,2 C 18,0 C 19,2 C 69 % 0 % 1018 hPa 0,0 l/m 13,4 km/h (3 Bft) 0 min
04.06.2017 16:30 22,2 C 17,9 C 19,3 C 71 % 0 % 1018 hPa 0,0 l/m 13,4 km/h (3 Bft) 0 min
04.06.2017 16:33 22,2 C 17,9 C 19,4 C 71 % 0 % 1018 hPa 0,0 l/m 12,6 km/h (3 Bft) 0 min
04.06.2017 16:36 22,3 C 17,7 C 19,2 C 70 % 0 % 1018 hPa 0,0 l/m 15,0 km/h (3 Bft) 0 min
04.06.2017 16:39 22,4 C 17,7 C 19,3 C 70 % 0 % 1018 hPa 0,0 l/m 14,3 km/h (3 Bft) 0 min
04.06.2017 16:42 22,4 C 17,6 C 19,2 C 70 % 0 % 1018 hPa 0,0 l/m 16,0 km/h (3 Bft) 0 min
04.06.2017 16:45 22,5 C 17,6 C 19,2 C 71 % 0 % 1018 hPa 0,0 l/m 10,6 km/h (2 Bft) 0 min
04.06.2017 16:48 22,5 C 17,5 C 19,1 C 70 % 0 % 1018 hPa 0,0 l/m 8,3 km/h (2 Bft) 0 min
04.06.2017 16:51 22,6 C 17,4 C 18,9 C 70 % 0 % 1018 hPa 0,0 l/m 16,6 km/h (3 Bft) 0 min
04.06.2017 16:54 22,6 C 17,4 C 19,0 C 71 % 0 % 1018 hPa 0,0 l/m 13,4 km/h (3 Bft) 0 min
04.06.2017 16:57 22,6 C 17,4 C 19,1 C 71 % 0 % 1018 hPa 0,0 l/m 8,7 km/h (2 Bft) 0 min
04.06.2017 17:00 22,7 C 17,4 C 19,2 C 71 % 0 % 1018 hPa 0,0 l/m 9,8 km/h (2 Bft) 0 min
04.06.2017 17:03 22,7 C 17,5 C 19,2 C 71 % 0 % 1018 hPa 0,0 l/m 7,6 km/h (2 Bft) 0 min
04.06.2017 17:06 22,8 C 17,6 C 19,2 C 71 % 0 % 1018 hPa 0,0 l/m 15,0 km/h (3 Bft) 0 min
04.06.2017 17:09 22,8 C 17,7 C 19,2 C 71 % 0 % 1018 hPa 0,0 l/m 10,3 km/h (2 Bft) 0 min
04.06.2017 17:12 22,8 C 17,8 C 19,3 C 71 % 0 % 1018 hPa 0,0 l/m 5,7 km/h (1 Bft) 0 min
04.06.2017 17:15 22,9 C 17,8 C 19,2 C 71 % 0 % 1018 hPa 0,0 l/m 8,5 km/h (2 Bft) 0 min
04.06.2017 17:18 22,9 C 17,8 C 19,2 C 71 % 0 % 1018 hPa 0,0 l/m 8,4 km/h (2 Bft) 0 min
04.06.2017 17:21 22,9 C 17,8 C 19,2 C 71 % 0 % 1018 hPa 0,0 l/m 8,5 km/h (2 Bft) 0 min
04.06.2017 17:24 22,9 C 17,8 C 19,2 C 71 % 0 % 1018 hPa 0,0 l/m 10,5 km/h (2 Bft) 0 min
04.06.2017 17:27 22,9 C 17,8 C 19,2 C 71 % 0 % 1018 hPa 0,0 l/m 8,9 km/h (2 Bft) 0 min
04.06.2017 17:30 22,9 C 17,8 C 19,2 C 71 % 0 % 1018 hPa 0,0 l/m 11,0 km/h (2 Bft) 0 min
04.06.2017 17:33 22,9 C 17,8 C 19,3 C 71 % 0 % 1018 hPa 0,0 l/m 4,6 km/h (1 Bft) 0 min
04.06.2017 17:36 22,9 C 17,9 C 19,4 C 72 % 0 % 1018 hPa 0,0 l/m 0,7 km/h (0 Bft) 0 min
04.06.2017 17:39 22,9 C 17,9 C 19,3 C 71 % 0 % 1018 hPa 0,0 l/m 11,8 km/h (2 Bft) 0 min
04.06.2017 17:42 22,9 C 18,0 C 19,3 C 72 % 0 % 1018 hPa 0,0 l/m 5,2 km/h (1 Bft) 0 min
04.06.2017 17:45 22,9 C 18,0 C 19,3 C 71 % 0 % 1018 hPa 0,0 l/m 6,7 km/h (2 Bft) 0 min
04.06.2017 17:48 22,9 C 17,8 C 19,1 C 68 % 0 % 1018 hPa 0,0 l/m 9,0 km/h (2 Bft) 0 min
04.06.2017 17:51 23,0 C 17,6 C 18,8 C 68 % 0 % 1018 hPa 0,0 l/m 8,7 km/h (2 Bft) 0 min
04.06.2017 17:54 23,0 C 17,5 C 18,9 C 69 % 0 % 1018 hPa 0,0 l/m 7,2 km/h (2 Bft) 0 min
04.06.2017 17:57 23,0 C 17,5 C 19,2 C 69 % 0 % 1018 hPa 0,0 l/m 3,9 km/h (1 Bft) 0 min
04.06.2017 18:00 23,0 C 17,5 C 19,2 C 70 % 0 % 1018 hPa 0,0 l/m 4,8 km/h (1 Bft) 0 min
04.06.2017 18:03 23,0 C 17,5 C 19,0 C 70 % 0 % 1018 hPa 0,0 l/m 4,8 km/h (1 Bft) 0 min
04.06.2017 18:06 23,0 C 17,5 C 19,1 C 69 % 0 % 1018 hPa 0,0 l/m 4,0 km/h (1 Bft) 0 min
04.06.2017 18:09 23,1 C 17,6 C 19,1 C 69 % 0 % 1018 hPa 0,0 l/m 1,3 km/h (1 Bft) 0 min
04.06.2017 18:12 23,1 C 17,8 C 19,2 C 69 % 0 % 1018 hPa 0,0 l/m 1,3 km/h (1 Bft) 0 min
04.06.2017 18:15 23,1 C 18,0 C 19,4 C 69 % 0 % 1018 hPa 0,0 l/m 4,7 km/h (1 Bft) 0 min
04.06.2017 18:18 23,1 C 18,1 C 19,3 C 69 % 0 % 1018 hPa 0,0 l/m 5,9 km/h (2 Bft) 0 min
04.06.2017 18:21 23,1 C 18,0 C 19,2 C 69 % 0 % 1018 hPa 0,0 l/m 4,2 km/h (1 Bft) 0 min
04.06.2017 18:24 23,1 C 18,0 C 19,0 C 69 % 0 % 1018 hPa 0,0 l/m 4,2 km/h (1 Bft) 0 min
04.06.2017 18:27 23,1 C 17,9 C 19,0 C 70 % 0 % 1018 hPa 0,0 l/m 1,6 km/h (1 Bft) 0 min
04.06.2017 18:30 23,1 C 17,8 C 19,1 C 71 % 0 % 1018 hPa 0,0 l/m 6,8 km/h (2 Bft) 0 min
04.06.2017 18:33 23,1 C 17,8 C 19,2 C 71 % 0 % 1018 hPa 0,0 l/m 4,0 km/h (1 Bft) 0 min
04.06.2017 18:36 23,1 C 17,8 C 19,2 C 71 % 0 % 1018 hPa 0,0 l/m 5,6 km/h (1 Bft) 0 min
04.06.2017 18:39 23,1 C 17,8 C 19,2 C 71 % 0 % 1018 hPa 0,0 l/m 14,4 km/h (3 Bft) 0 min
04.06.2017 18:42 23,1 C 17,8 C 19,2 C 70 % 0 % 1018 hPa 0,0 l/m 6,5 km/h (2 Bft) 0 min
04.06.2017 18:45 23,1 C 17,8 C 19,2 C 70 % 0 % 1018 hPa 0,0 l/m 10,9 km/h (2 Bft) 0 min
04.06.2017 18:48 23,1 C 17,8 C 19,1 C 70 % 0 % 1018 hPa 0,0 l/m 9,0 km/h (2 Bft) 0 min
04.06.2017 18:51 23,1 C 17,8 C 19,2 C 70 % 0 % 1018 hPa 0,0 l/m 7,7 km/h (2 Bft) 0 min
04.06.2017 18:54 23,1 C 17,8 C 19,2 C 70 % 0 % 1018 hPa 0,0 l/m 6,1 km/h (2 Bft) 0 min
04.06.2017 18:57 23,1 C 17,8 C 19,3 C 70 % 0 % 1018 hPa 0,0 l/m 6,1 km/h (2 Bft) 0 min
04.06.2017 19:00 23,1 C 17,8 C 19,2 C 69 % 0 % 1018 hPa 0,0 l/m 6,8 km/h (2 Bft) 0 min
04.06.2017 19:03 23,1 C 17,9 C 19,1 C 68 % 0 % 1018 hPa 0,0 l/m 1,5 km/h (1 Bft) 0 min
04.06.2017 19:06 23,2 C 17,9 C 19,2 C 68 % 0 % 1018 hPa 0,0 l/m 7,0 km/h (2 Bft) 0 min
04.06.2017 19:09 23,1 C 17,8 C 19,2 C 68 % 0 % 1018 hPa 0,0 l/m 6,4 km/h (2 Bft) 0 min
04.06.2017 19:12 23,1 C 17,8 C 19,2 C 68 % 0 % 1018 hPa 0,0 l/m 5,2 km/h (1 Bft) 0 min
04.06.2017 19:15 23,1 C 17,8 C 19,2 C 68 % 0 % 1018 hPa 0,0 l/m 8,6 km/h (2 Bft) 0 min
04.06.2017 19:18 23,1 C 17,8 C 19,2 C 68 % 0 % 1018 hPa 0,0 l/m 6,7 km/h (2 Bft) 0 min
04.06.2017 19:21 23,1 C 17,8 C 19,2 C 68 % 0 % 1018 hPa 0,0 l/m 7,9 km/h (2 Bft) 0 min
04.06.2017 19:24 23,1 C 17,8 C 19,2 C 68 % 0 % 1018 hPa 0,0 l/m 2,8 km/h (1 Bft) 0 min
04.06.2017 19:27 23,2 C 17,8 C 19,2 C 68 % 0 % 1018 hPa 0,0 l/m 3,5 km/h (1 Bft) 0 min
04.06.2017 19:30 23,1 C 17,8 C 19,2 C 68 % 0 % 1018 hPa 0,0 l/m 2,0 km/h (1 Bft) 0 min
04.06.2017 19:33 23,2 C 17,8 C 19,1 C 69 % 0 % 1018 hPa 0,0 l/m 3,7 km/h (1 Bft) 0 min
04.06.2017 19:36 23,1 C 17,8 C 19,1 C 69 % 0 % 1018 hPa 0,0 l/m 3,7 km/h (1 Bft) 0 min
04.06.2017 19:39 23,1 C 17,7 C 19,1 C 69 % 0 % 1018 hPa 0,0 l/m 4,5 km/h (1 Bft) 0 min
04.06.2017 19:42 23,1 C 17,7 C 19,1 C 69 % 0 % 1018 hPa 0,0 l/m 4,4 km/h (1 Bft) 0 min
04.06.2017 19:45 23,1 C 17,7 C 19,1 C 69 % 0 % 1018 hPa 0,0 l/m 1,9 km/h (1 Bft) 0 min
04.06.2017 19:48 23,1 C 17,7 C 19,1 C 69 % 0 % 1018 hPa 0,0 l/m 5,0 km/h (1 Bft) 0 min
04.06.2017 19:51 23,1 C 17,7 C 19,1 C 69 % 0 % 1018 hPa 0,0 l/m 2,9 km/h (1 Bft) 0 min
04.06.2017 19:54 23,1 C 17,6 C 19,1 C 69 % 0 % 1018 hPa 0,0 l/m 4,2 km/h (1 Bft) 0 min
04.06.2017 19:57 23,1 C 17,6 C 19,1 C 68 % 0 % 1018 hPa 0,0 l/m 4,6 km/h (1 Bft) 0 min
04.06.2017 20:00 23,1 C 17,6 C 18,9 C 68 % 0 % 1018 hPa 0,0 l/m 8,0 km/h (2 Bft) 0 min
04.06.2017 20:03 23,1 C 17,6 C 19,0 C 70 % 0 % 1018 hPa 0,0 l/m 8,0 km/h (2 Bft) 0 min
04.06.2017 20:06 23,1 C 17,5 C 19,0 C 69 % 0 % 1018 hPa 0,0 l/m 0,4 km/h (0 Bft) 0 min
04.06.2017 20:09 23,1 C 17,4 C 18,9 C 70 % 0 % 1018 hPa 0,0 l/m 0,4 km/h (0 Bft) 0 min
04.06.2017 20:12 23,1 C 17,5 C 18,9 C 71 % 0 % 1018 hPa 0,0 l/m 2,1 km/h (1 Bft) 0 min
04.06.2017 20:15 23,1 C 17,5 C 18,9 C 71 % 0 % 1018 hPa 0,0 l/m 3,3 km/h (1 Bft) 0 min
04.06.2017 20:18 23,1 C 17,4 C 18,9 C 71 % 0 % 1018 hPa 0,0 l/m 3,4 km/h (1 Bft) 0 min
04.06.2017 20:21 23,1 C 17,4 C 18,9 C 71 % 0 % 1018 hPa 0,0 l/m 4,6 km/h (1 Bft) 0 min
04.06.2017 20:24 23,2 C 17,4 C 18,9 C 71 % 0 % 1018 hPa 0,0 l/m 4,6 km/h (1 Bft) 0 min
04.06.2017 20:27 23,2 C 17,4 C 19,0 C 71 % 0 % 1018 hPa 0,0 l/m 4,9 km/h (1 Bft) 0 min
04.06.2017 20:30 23,2 C 17,3 C 18,9 C 71 % 0 % 1018 hPa 0,0 l/m 3,4 km/h (1 Bft) 0 min
04.06.2017 20:33 23,1 C 17,3 C 19,0 C 71 % 0 % 1018 hPa 0,0 l/m 5,9 km/h (2 Bft) 0 min
04.06.2017 20:36 23,1 C 17,3 C 18,9 C 71 % 0 % 1018 hPa 0,0 l/m 0,1 km/h (0 Bft) 0 min
04.06.2017 20:39 23,1 C 17,3 C 19,0 C 71 % 0 % 1018 hPa 0,0 l/m 1,0 km/h (0 Bft) 0 min
04.06.2017 20:42 23,1 C 17,3 C 18,9 C 71 % 0 % 1018 hPa 0,0 l/m 2,7 km/h (1 Bft) 0 min
04.06.2017 20:45 23,1 C 17,3 C 18,9 C 72 % 0 % 1018 hPa 0,0 l/m 0,0 km/h (0 Bft) 0 min
04.06.2017 20:48 23,0 C 17,2 C 18,8 C 72 % 0 % 1018 hPa 0,0 l/m 0,0 km/h (0 Bft) 0 min
04.06.2017 20:51 23,0 C 17,2 C 18,8 C 71 % 0 % 1018 hPa 0,0 l/m 0,0 km/h (0 Bft) 0 min
04.06.2017 20:54 22,9 C 17,2 C 18,8 C 71 % 0 % 1018 hPa 0,0 l/m 0,0 km/h (0 Bft) 0 min
04.06.2017 20:57 22,9 C 17,2 C 18,8 C 71 % 0 % 1018 hPa 0,0 l/m 0,0 km/h (0 Bft) 0 min
04.06.2017 21:00 22,8 C 17,2 C 18,7 C 71 % 0 % 1018 hPa 0,0 l/m 0,3 km/h (0 Bft) 0 min
04.06.2017 21:03 22,8 C 17,2 C 18,8 C 71 % 0 % 1018 hPa 0,0 l/m 0,0 km/h (0 Bft) 0 min
04.06.2017 21:06 22,8 C 17,2 C 18,7 C 71 % 0 % 1018 hPa 0,0 l/m 0,0 km/h (0 Bft) 0 min
04.06.2017 21:09 22,8 C 17,1 C 18,7 C 71 % 0 % 1018 hPa 0,0 l/m 0,0 km/h (0 Bft) 0 min
04.06.2017 21:12 22,8 C 17,1 C 18,5 C 71 % 0 % 1018 hPa 0,0 l/m 0,0 km/h (0 Bft) 0 min
04.06.2017 21:15 22,8 C 17,0 C 18,5 C 71 % 0 % 1018 hPa 0,0 l/m 0,0 km/h (0 Bft) 0 min
04.06.2017 21:18 22,8 C 17,0 C 18,5 C 72 % 0 % 1018 hPa 0,0 l/m 0,0 km/h (0 Bft) 0 min
04.06.2017 21:21 22,8 C 16,9 C 18,7 C 73 % 0 % 1018 hPa 0,0 l/m 0,0 km/h (0 Bft) 0 min
04.06.2017 21:24 22,7 C 16,9 C 18,5 C 73 % 0 % 1018 hPa 0,0 l/m 0,0 km/h (0 Bft) 0 min
04.06.2017 21:27 22,7 C 16,8 C 18,4 C 73 % 0 % 1018 hPa 0,0 l/m 0,0 km/h (0 Bft) 0 min
04.06.2017 21:30 22,7 C 16,8 C 18,4 C 72 % 0 % 1018 hPa 0,0 l/m 0,0 km/h (0 Bft) 0 min
04.06.2017 21:33 22,7 C 16,7 C 18,2 C 72 % 0 % 1018 hPa 0,0 l/m 0,0 km/h (0 Bft) 0 min
04.06.2017 21:36 22,7 C 16,7 C 18,2 C 72 % 0 % 1019 hPa 0,0 l/m 0,0 km/h (0 Bft) 0 min
04.06.2017 21:39 22,6 C 16,6 C 18,3 C 73 % 0 % 1019 hPa 0,0 l/m 0,0 km/h (0 Bft) 0 min
04.06.2017 21:42 22,6 C 16,5 C 18,2 C 73 % 0 % 1019 hPa 0,0 l/m 0,0 km/h (0 Bft) 0 min
04.06.2017 21:45 22,6 C 16,4 C 18,0 C 73 % 0 % 1019 hPa 0,0 l/m 0,0 km/h (0 Bft) 0 min
04.06.2017 21:48 22,6 C 16,3 C 17,8 C 73 % 0 % 1019 hPa 0,0 l/m 0,0 km/h (0 Bft) 0 min
04.06.2017 21:51 22,6 C 16,2 C 17,7 C 74 % 0 % 1019 hPa 0,0 l/m 0,0 km/h (0 Bft) 0 min
04.06.2017 21:54 22,6 C 16,1 C 17,7 C 74 % 0 % 1019 hPa 0,0 l/m 0,0 km/h (0 Bft) 0 min
04.06.2017 21:57 22,5 C 16,0 C 17,8 C 74 % 0 % 1019 hPa 0,0 l/m 0,0 km/h (0 Bft) 0 min
04.06.2017 22:00 22,5 C 15,9 C 17,7 C 74 % 0 % 1019 hPa 0,0 l/m 0,0 km/h (0 Bft) 0 min
04.06.2017 22:03 22,5 C 15,8 C 17,5 C 74 % 0 % 1019 hPa 0,0 l/m 0,0 km/h (0 Bft) 0 min
04.06.2017 22:06 22,5 C 15,7 C 17,4 C 75 % 0 % 1019 hPa 0,0 l/m 0,0 km/h (0 Bft) 0 min
04.06.2017 22:09 22,5 C 15,6 C 17,4 C 75 % 0 % 1019 hPa 0,0 l/m 0,0 km/h (0 Bft) 0 min
04.06.2017 22:12 22,5 C 15,5 C 17,3 C 76 % 0 % 1019 hPa 0,0 l/m 0,0 km/h (0 Bft) 0 min
04.06.2017 22:15 22,5 C 15,4 C 17,2 C 76 % 0 % 1019 hPa 0,0 l/m 0,0 km/h (0 Bft) 0 min
04.06.2017 22:18 22,4 C 15,2 C 17,2 C 76 % 0 % 1019 hPa 0,0 l/m 0,0 km/h (0 Bft) 0 min
04.06.2017 22:21 22,3 C 15,0 C 17,3 C 76 % 0 % 1019 hPa 0,0 l/m 0,0 km/h (0 Bft) 0 min
04.06.2017 22:24 22,3 C 15,0 C 17,7 C 77 % 0 % 1019 hPa 0,0 l/m 0,0 km/h (0 Bft) 0 min
04.06.2017 22:27 22,3 C 15,0 C 17,3 C 77 % 0 % 1019 hPa 0,0 l/m 0,0 km/h (0 Bft) 0 min
04.06.2017 22:30 22,3 C 15,0 C 17,3 C 77 % 0 % 1019 hPa 0,0 l/m 0,0 km/h (0 Bft) 0 min
04.06.2017 22:33 22,2 C 15,0 C 17,4 C 78 % 0 % 1019 hPa 0,0 l/m 0,0 km/h (0 Bft) 0 min
04.06.2017 22:36 22,2 C 15,0 C 17,3 C 78 % 0 % 1019 hPa 0,0 l/m 0,0 km/h (0 Bft) 0 min
04.06.2017 22:39 22,2 C 15,0 C 17,1 C 78 % 0 % 1019 hPa 0,0 l/m 0,0 km/h (0 Bft) 0 min
04.06.2017 22:42 22,2 C 14,9 C 17,2 C 78 % 0 % 1019 hPa 0,0 l/m 0,0 km/h (0 Bft) 0 min
04.06.2017 22:45 22,2 C 14,8 C 17,1 C 78 % 0 % 1019 hPa 0,0 l/m 0,0 km/h (0 Bft) 0 min
04.06.2017 22:48 22,1 C 14,8 C 17,1 C 78 % 0 % 1018 hPa 0,0 l/m 0,0 km/h (0 Bft) 0 min
04.06.2017 22:51 22,1 C 14,8 C 17,1 C 78 % 0 % 1018 hPa 0,0 l/m 0,0 km/h (0 Bft) 0 min
04.06.2017 22:54 22,1 C 14,6 C 17,1 C 78 % 0 % 1018 hPa 0,0 l/m 0,0 km/h (0 Bft) 0 min
04.06.2017 22:57 22,0 C 14,6 C 16,9 C 78 % 0 % 1018 hPa 0,0 l/m 0,0 km/h (0 Bft) 0 min
04.06.2017 23:00 22,0 C 14,4 C 16,6 C 78 % 0 % 1018 hPa 0,0 l/m 0,0 km/h (0 Bft) 0 min
04.06.2017 23:03 22,0 C 14,4 C 16,6 C 78 % 0 % 1018 hPa 0,0 l/m 0,0 km/h (0 Bft) 0 min
04.06.2017 23:06 22,0 C 14,3 C 16,5 C 79 % 0 % 1018 hPa 0,0 l/m 0,0 km/h (0 Bft) 0 min
04.06.2017 23:09 22,0 C 14,2 C 16,5 C 79 % 0 % 1018 hPa 0,0 l/m 0,0 km/h (0 Bft) 0 min
04.06.2017 23:12 22,0 C 14,2 C 16,3 C 79 % 0 % 1018 hPa 0,0 l/m 0,0 km/h (0 Bft) 0 min
04.06.2017 23:15 22,0 C 14,1 C 16,4 C 79 % 0 % 1018 hPa 0,0 l/m 0,0 km/h (0 Bft) 0 min
04.06.2017 23:18 22,0 C 14,0 C 16,3 C 79 % 0 % 1018 hPa 0,0 l/m 0,0 km/h (0 Bft) 0 min
04.06.2017 23:21 21,9 C 13,9 C 16,2 C 80 % 0 % 1018 hPa 0,0 l/m 0,0 km/h (0 Bft) 0 min
04.06.2017 23:24 21,9 C 13,8 C 16,5 C 80 % 0 % 1018 hPa 0,0 l/m 0,6 km/h (0 Bft) 0 min
04.06.2017 23:27 21,8 C 13,8 C 16,7 C 80 % 0 % 1019 hPa 0,0 l/m 0,1 km/h (0 Bft) 0 min
04.06.2017 23:30 21,8 C 13,8 C 16,6 C 80 % 0 % 1019 hPa 0,0 l/m 0,0 km/h (0 Bft) 0 min
04.06.2017 23:33 21,8 C 13,8 C 16,7 C 81 % 0 % 1019 hPa 0,0 l/m 0,0 km/h (0 Bft) 0 min
04.06.2017 23:36 21,8 C 13,8 C 16,4 C 81 % 0 % 1019 hPa 0,0 l/m 0,0 km/h (0 Bft) 0 min
04.06.2017 23:39 21,8 C 13,8 C 16,6 C 81 % 0 % 1019 hPa 0,0 l/m 0,0 km/h (0 Bft) 0 min
04.06.2017 23:42 21,8 C 13,7 C 16,4 C 81 % 0 % 1019 hPa 0,0 l/m 0,0 km/h (0 Bft) 0 min
04.06.2017 23:45 21,8 C 13,7 C 16,3 C 81 % 0 % 1019 hPa 0,0 l/m 0,0 km/h (0 Bft) 0 min
04.06.2017 23:48 21,8 C 13,7 C 16,3 C 81 % 0 % 1019 hPa 0,0 l/m 0,0 km/h (0 Bft) 0 min
04.06.2017 23:51 21,7 C 13,6 C 16,0 C 81 % 0 % 1019 hPa 0,0 l/m 0,0 km/h (0 Bft) 0 min
04.06.2017 23:54 21,7 C 13,6 C 15,9 C 81 % 0 % 1019 hPa 0,0 l/m 0,0 km/h (0 Bft) 0 min
04.06.2017 23:57 21,6 C 13,6 C 16,0 C 81 % 0 % 1019 hPa 0,0 l/m 0,0 km/h (0 Bft) 0 min
_ Min-Zeit 23:57 23:51 23:54 10:36 - 02:57 - 00:00 -
Minimum _ 21,6 C 13,6 C 15,9 C 67 % - 1010 hPa - 0,0 km/h (0 Bft) -
_ Max-Zeit 11:09 00:00 00:03 13:36 00:00 21:36 12:51 10:15 00:00
Maximum _ 23,2 C 20,4 C 22,0 C 84 % 0 % 1019 hPa 1,0 l/m 29,2 km/h
N (5 Bft)
0 min
Durchschnitt _ 22,7 C 18,0 C 19,6 C 73 % #0 min. 1015 hPa #2,1 l/m 7,5 km/h (2 Bft) #0 min.